ASTEX 1

Last updated on Sat Aug 15 2026 00:02:07 GMT+0000 (Coordinated Universal Time)

1 05560U 71089A 26226.48871999 .00000153 00000+0 39115-4 0 9995 2 05560 92.7043 202.6405 0013083 272.2516 87.7192 14.50891305885182
UTC large
Height (km)
Speed (km/s)
/
Latitude / Longitude
Inclination (degrees)
Orbital Period (minutes)
Azimuth
Elevation
Range (km)
Doppler Factor

Next 0 passes for location: London (51.5072 / 0.1276)

No passes found over London.
ASTEX 1